Regional Weather Roundup
Issued by NWS

Home | Current Version | Previous Version | Text Only | Print | Product List | Glossary On
Versions: 1 2 3 4 5 6 7 8 9 10 11 12 13 14 15 16 17 18 19 20 21 22 23 24 25 26 27 28 29 30 31 32 33 34 35 36 37 38 39 40 41 42 43 44 45 46 47 48 49 50
000
ASUS43 KOAX 220510
RWRNE

WEATHER ROUNDUP FOR NEBRASKA
NATIONAL WEATHER SERVICE OMAHA NE
1100 PM CST SUN DEC 21 2014

NOTES: SATELLITE DATA IS BEING USED TO AUGMENT CLOUD COVER ABOVE
       12000 FEET.
       "FAIR" INDICATES FEW OR NO CLOUDS BELOW 12,000 FEET WITH NO
       SIGNIFICANT WEATHER AND/OR OBSTRUCTIONS TO VISIBILITY.

  * THESE STATIONS DO NOT REPORT WEATHER SUCH AS RAIN...SNOW OR FOG.

NEZ001>004-019>022-054>056-220600-
NEBRASKA PANHANDLE

CITY           SKY/WX    TMP DP  RH WIND       PRES   REMARKS
SCOTTSBLUFF    CLOUDY    38  31  76 W16       29.59R WCI  29
ALLIANCE       MOCLDY    35  30  82 W14       29.54R WCI  26
CHADRON        MOCLDY    39  31  72 W16       29.54R WCI  30
KIMBALL        CLOUDY    35  31  86 NW8       29.59F WCI  29
SIDNEY         CLOUDY    37  31  78 NW21      29.58R WCI  26
$$

NEZ057>060-069>072-079>082-220600-
SOUTHWEST NEBRASKA

CITY           SKY/WX    TMP DP  RH WIND       PRES   REMARKS
NORTH PLATTE   MOCLDY    27  26  96 NW6       29.50R WCI  20
IMPERIAL       CLOUDY    41  30  65 NW12      29.52R
LEXINGTON      CLOUDY    39  37  93 S13       29.50R WCI  32
MCCOOK         MOCLDY    34  32  92 SW6       29.51R FOG     WCI  29
OGALLALA       MOCLDY    31  29  93 W8        29.52R WCI  23
$$

NEZ005>010-023>029-035>040-094-220600-
NORTH CENTRAL NEBRASKA

CITY           SKY/WX    TMP DP  RH WIND       PRES   REMARKS
VALENTINE      CLOUDY    37  31  78 W12       29.46R WCI  29
AINSWORTH      MOCLDY    33  32  94 S6        29.46S WCI  28
BROKEN BOW     CLOUDY    37  35  92 S7        29.49S WCI  32
O`NEILL        LGT RAIN  38  38  98 S14       29.49S WCI  30
THEDFORD       CLOUDY    36  32  85 W8        29.48R WCI  30
$$

NEZ041-046>049-061>064-073>077-083>087-220600-
SOUTH CENTRAL NEBRASKA

CITY           SKY/WX    TMP DP  RH WIND       PRES   REMARKS
GRAND ISLAND   CLOUDY    41  39  93 S15       29.55F
AURORA         CLOUDY    42  42 100 S13G20    29.56S
HASTINGS       CLOUDY    41  38  89 S12       29.54S
HEBRON         CLOUDY    43  40  91 S10       29.60F
HOLDREGE       CLOUDY    39  37  93 S10       29.51F FOG     WCI  32
KEARNEY *      CLOUDY    39  37  93 S14       29.52F WCI  31
YORK           CLOUDY    41  41 100 S15       29.58S
$$

NEZ011>018-030>034-042>045-220600-
NORTHEAST NEBRASKA

CITY           SKY/WX    TMP DP  RH WIND       PRES   REMARKS
NORFOLK        LGT RAIN  41  39  93 S16       29.56S
ALBION         CLOUDY    40  37  90 S12G18    29.53F FOG     WCI  33
BLAIR          CLOUDY    43  41  93 S17G24    29.64R FOG
COLUMBUS *     CLOUDY    43  37  81 S14       29.59F
FREMONT        CLOUDY    43  42  96 SE10      29.62F FOG
TEKAMAH        LGT RAIN  43  41  93 S16       29.63F
WAYNE          CLOUDY    41  39  93 S18       29.57F
$$

NEZ050>053-065>068-078-088>093-220600-
SOUTHEAST NEBRASKA

CITY           SKY/WX    TMP DP  RH WIND       PRES   REMARKS
LINCOLN        LGT RAIN  43  41  93 S14       29.63F FOG
OMAHA EPPLEY   DRIZZLE   43  41  93 S18       29.66F
BEATRICE       CLOUDY    43  42  97 S13G22    29.63F FOG
FALLS CITY     CLOUDY    44  41  89 S14       29.70S FOG
NEBRASKA CITY  CLOUDY    42  42 100 S16       29.67F FOG
PLATTSMOUTH    CLOUDY    42  41  95 S14G22    29.66S FOG
$$

NEZ044-045-051>053-067-220600-
OMAHA AREA

CITY           SKY/WX    TMP DP  RH WIND       PRES   REMARKS
OMAHA EPPLEY   DRIZZLE   43  41  93 S18       29.66F
BLAIR          CLOUDY    43  41  93 S17G24    29.64R FOG
FREMONT        CLOUDY    43  42  96 SE10      29.62F FOG
MILLARD        CLOUDY    43  41  93 S13       29.65S FOG
OFFUTT AFB     CLOUDY    42  41  96 SE13      29.65S FOG
PLATTSMOUTH    CLOUDY    42  41  95 S14G22    29.66S FOG
WAHOO          CLOUDY    43  40  90 S13       29.63S
$$


USA.gov is the U.S. government's official web portal to all federal, state and local government web resources and services.